Flag for Canada Weather past 2 weeks in Nanaimo, British Columbia, Canada

Now
44 °F

Quite cool.


Feels Like: 36 °F
Forecast: 41 / 47 °F
Wind: 20 mph from Northwest

Location: Entrance Island

Current Time: Dec 22, 2014 at 9:27:21 AM

Latest Report: Dec 22, 2014 at 9:00 AM


Visibility: N/A

Pressure: 30.29 "Hg

Humidity: 87%

Dew point: 40 °F

Location of NanaimoLocation

Historic Weather in Nanaimo — Graph

°F

Nanaimo temperature yesterday

Maximum temperature yesterday: 49 °F (at 6:00 PM)
Minimum temperature yesterday: 45 °F (at 7:00 AM)
Average temperature yesterday: 47 °F

Past Weeks' High & Low Weather Summary

 TemperatureHumidityPressure
High59 °F (Dec 9, 1:00 PM)97% (Dec 18, 11:00 AM)30.28 "Hg (Dec 18, 11:00 AM)
Low39 °F (Dec 14, 9:00 PM)59% (Dec 9, 2:00 PM)29.15 "Hg (Dec 11, 6:00 PM)
Average47 °F83%29.78 "Hg
* Reported Dec 7 8:00 AM — Dec 22 8:00 AM, Nanaimo, Weather by CustomWeather, © 2014

Note: Actual official high and low records may vary slightly from our data, if they occured in-between our weather recording intervals... More about our weather records

Advertising

Nanaimo weather history for previous 24 hours

 ConditionsComfort  
Time TempWeatherWind HumidityBarometerVisibility
8:00 AM
Dec 22
43 °FQuite cool.12 mph79%30.28 "HgN/A
7:00 AM45 °FCool.9 mph81%30.25 "HgN/A
6:00 AM44 °FQuite cool.10 mph81%30.23 "HgN/A
5:00 AM46 °FCool.10 mph76%30.19 "HgN/A
4:00 AM46 °FCool.10 mph73%30.19 "HgN/A
3:00 AM47 °FCool.12 mph74%30.16 "HgN/A
2:00 AM46 °FCool.12 mph86%30.13 "HgN/A
1:00 AM48 °FCool.13 mph77%30.11 "HgN/A
12:00 AM48 °FCool.15 mph78%30.09 "HgN/A
11:00 PM
Dec 21
48 °FCool.10 mph79%30.06 "HgN/A
10:00 PM48 °FCool.12 mph78%30.03 "HgN/A
9:00 PM47 °FCool.2 mph81%30.01 "HgN/A
8:00 PM48 °FCool.1 mph80%29.99 "HgN/A
7:00 PM48 °FCool.8 mph77%29.96 "HgN/A
6:00 PM49 °FCool.3 mph75%29.96 "HgN/A
5:00 PM47 °FCool.8 mph86%29.95 "HgN/A
4:00 PM47 °FCool.9 mph87%29.93 "HgN/A
3:00 PM47 °FCool.8 mph87%29.93 "HgN/A
2:00 PM47 °FCool.8 mph88%29.90 "HgN/A
1:00 PM46 °FCool.9 mph88%29.89 "HgN/A
12:00 PM48 °FCool.1 mph82%29.88 "HgN/A
11:00 AM47 °FCool.5 mph89%29.85 "HgN/A
10:00 AM45 °FCool.6 mph90%29.84 "HgN/A
9:00 AM45 °FCool.3 mph90%29.81 "HgN/A
Weather by CustomWeather, © 2014

See weather overviewHow to use our weather pages